Content
SEND FEEDBACK

Daily
Averages
Monthly
Summary
Mexico

TIXMUCUY, CAMPECHE


Home > North America > Mexico > Campeche
Elevation: 112 feet     Latitude: 19 36N     Longitude: 090 16W

WEATHER
 
SELECT A DAY
Number of Records: 130,202;   Date Range: 1/1/95 - 7/30/14
 
SHARE

PRINT THIS DATA

[ ← Previous Day ]
WEATHER ALMANAC - FEBRUARY 13, 2013
[ Next Day → ]
[ °C ]   °F
Weather ElementAverageHighLow
Temperature80.7 °F94 °F (11:45 am)69.8 °F (6:42 am)
Dewpoint72.4 °F76 °F (11:45 am)66.2 °F (12:41 pm)
Humidity76.4 %100 % (6:42 am)41 % (12:41 pm)
Barometer29.84 in29.90 in (10:40 pm)29.79 in (2:42 pm)
Wind Speed7.3 mph17.3 mph (8:49 am)
Wind Gust26.5 mph (10:41 am)
Weather ElementAverage
Visibility6.5 mi
Wind DirectionSSE (172.8 °)

Weather ElementTotal
Precipitation---
Cooling Degree Days16.9 (Base 65)
Growing Degree Days31.9 (Base 50)
Averaged from 25 records on February 13, 2013
WEATHER CONDITIONS BREAKOUT
WIND DIRECTION BREAKOUT
WEATHER BY HOUR - FEBRUARY 13, 2013
[ °C ]   °F
Local TimeTemperatureDewpointHumidityBarometerVisibilityWind DirectionWind SpeedGust SpeedPrecipitationEventsConditions
5:10 AM71.6 °F69.8 °F94 %29.84 in7.0 miCalmClear
5:45 AM71.6 °F69.8 °F94 %29.84 in7.0 miCalmClear
6:42 AM69.8 °F69.8 °F100 %29.85 in7.0 miCalmClear
7:41 AM73.4 °F71.6 °F94 %29.86 in7.0 miEast (100°)5.8 mphClear
8:48 AM76.0 °F74.0 °F93 %29.87 in6.0 miSSE (150°)2.2 mph
8:49 AM78.8 °F71.6 °F78 %29.88 in7.0 miESE (120°)17.3 mphClear
9:41 AM82.4 °F73.4 °F74 %29.88 in7.0 miEast (100°)15.0 mphClear
10:41 AM86.0 °F71.6 °F62 %29.86 in7.0 miESE (110°)15.0 mph26.5 mphClear
11:45 AM94.0 °F76.0 °F47 %29.86 in6.0 miSSE (160°)4.5 mph
12:02 PM91.4 °F68.0 °F46 %29.84 in7.0 miESE (110°)9.2 mphPartly Cloudy
12:41 PM93.2 °F66.2 °F41 %29.83 in7.0 miSouth (180°)11.5 mphScattered Clouds
1:41 PM84.2 °F73.4 °F70 %29.81 in7.0 miWest (280°)11.5 mph23.0 mphScattered Clouds
2:42 PM82.4 °F75.2 °F79 %29.79 in7.0 miWest (280°)11.5 mph23.0 mphScattered Clouds
2:50 PM87.0 °F76.0 °F62 %29.80 in6.0 miWNW (300°)4.5 mph
3:41 PM82.4 °F73.4 °F74 %29.79 in7.0 miWest (280°)11.5 mph23.0 mphPartly Cloudy
4:41 PM82.4 °F71.6 °F70 %29.79 in7.0 miWest (280°)11.5 mphPartly Cloudy
5:42 PM82.4 °F73.4 °F74 %29.81 in7.0 miWNW (300°)11.5 mphPartly Cloudy
5:50 PM83.0 °F75.0 °F71 %29.81 in6.0 miNW (320°)2.2 mphScattered Clouds
6:40 PM80.6 °F75.2 °F84 %29.81 in7.0 miNNW (340°)11.5 mphScattered Clouds
7:40 PM80.6 °F73.4 °F79 %29.82 in7.0 miNorth (360°)9.2 mphScattered Clouds
8:42 PM80.6 °F73.4 °F79 %29.85 in7.0 miEast (80°)5.8 mphScattered Clouds
8:50 PM81.0 °F76.0 °F81 %29.86 in4.0 miNorth (350°)2.2 mphMostly Cloudy
9:42 PM77.0 °F71.6 °F83 %29.88 in7.0 miCalmMostly Cloudy
10:40 PM71.6 °F68.0 °F88 %29.90 in6.0 miEast (90°)8.1 mphOvercast
11:48 PM74.0 °F72.0 °F94 %29.89 in2.0 miNNE (30°)2.2 mphRainLight Drizzle
Hourly data recorded from MMCP, located miles away from Tixmucuy, Campeche







STORIES FROM OUR PARTNERS